Time,TemperatureF,DewpointF,PressureIn,WindDirection,WindDirectionDegrees,WindSpeedMPH,WindSpeedGustMPH,Humidity,HourlyPrecipIn,Conditions,Clouds,dailyrainin,SoftwareType,DateUTC
2016-02-11 00:30:00,25.8,16.0,29.72,NW,321,0.0,4.0,67,0.00,,,0.00,weatherlink.com 1.10,2016-02-11 05:30:00,
2016-02-11 00:45:00,25.8,15.0,29.72,NW,318,3.0,6.0,65,0.00,,,0.00,weatherlink.com 1.10,2016-02-11 05:45:00,
2016-02-11 01:00:00,25.5,15.0,29.72,West,266,3.0,5.0,64,0.00,,,0.00,weatherlink.com 1.10,2016-02-11 06:00:00,
2016-02-11 01:15:00,25.3,15.0,29.72,WNW,285,0.0,4.0,65,0.00,,,0.00,weatherlink.com 1.10,2016-02-11 06:15:00,
2016-02-11 01:30:00,25.0,14.0,29.72,West,273,1.0,5.0,64,0.00,,,0.00,weatherlink.com 1.10,2016-02-11 06:30:00,
2016-02-11 01:45:00,24.8,15.0,29.73,West,271,0.0,4.0,65,0.00,,,0.00,weatherlink.com 1.10,2016-02-11 06:45:00,
2016-02-11 02:00:00,24.5,14.0,29.73,West,259,2.0,3.0,65,0.00,,,0.00,weatherlink.com 1.10,2016-02-11 07:00:00,
2016-02-11 02:15:00,24.2,14.0,29.73,NW,306,1.0,3.0,66,0.00,,,0.00,weatherlink.com 1.10,2016-02-11 07:15:00,
2016-02-11 02:30:00,23.9,14.0,29.74,SW,233,1.0,4.0,67,0.00,,,0.00,weatherlink.com 1.10,2016-02-11 07:30:00,
2016-02-11 02:45:00,23.8,15.0,29.74,WSW,246,1.0,4.0,68,0.00,,,0.00,weatherlink.com 1.10,2016-02-11 07:45:00,
2016-02-11 03:00:00,23.8,15.0,29.74,SW,214,4.0,5.0,69,0.00,,,0.00,weatherlink.com 1.10,2016-02-11 08:00:00,
2016-02-11 03:15:00,23.5,14.0,29.74,NW,309,7.0,7.0,68,0.00,,,0.00,weatherlink.com 1.10,2016-02-11 08:15:00,
2016-02-11 03:30:00,23.3,16.0,29.74,WSW,252,2.0,4.0,72,0.00,,,0.00,weatherlink.com 1.10,2016-02-11 08:30:00,
2016-02-11 03:45:00,22.8,15.0,29.74,WSW,239,1.0,8.0,72,0.00,,,0.00,weatherlink.com 1.10,2016-02-11 08:45:00,
2016-02-11 04:00:00,22.7,15.0,29.75,South,190,2.0,5.0,71,0.00,,,0.00,weatherlink.com 1.10,2016-02-11 09:00:00,
2016-02-11 04:15:00,22.3,15.0,29.75,SW,225,6.0,6.0,73,0.00,,,0.00,weatherlink.com 1.10,2016-02-11 09:15:00,
2016-02-11 04:30:00,21.7,15.0,29.75,WSW,253,4.0,4.0,76,0.00,,,0.00,weatherlink.com 1.10,2016-02-11 09:30:00,
2016-02-11 04:45:00,21.2,15.0,29.75,West,269,1.0,4.0,77,0.00,,,0.00,weatherlink.com 1.10,2016-02-11 09:45:00,
2016-02-11 05:00:00,21.1,15.0,29.76,SE,143,0.0,5.0,78,0.00,,,0.00,weatherlink.com 1.10,2016-02-11 10:00:00,
2016-02-11 05:16:00,20.9,14.0,29.76,West,263,3.0,12.0,75,0.00,,,0.00,weatherlink.com 1.10,2016-02-11 10:16:00,
2016-02-11 05:31:00,20.6,14.0,29.76,SSW,194,3.0,8.0,74,0.00,,,0.00,weatherlink.com 1.10,2016-02-11 10:31:00,
2016-02-11 05:46:00,20.2,13.0,29.76,West,278,3.0,11.0,72,0.00,,,0.00,weatherlink.com 1.10,2016-02-11 10:46:00,
2016-02-11 06:01:00,20.1,11.0,29.77,NNW,337,3.0,7.0,69,0.00,,,0.00,weatherlink.com 1.10,2016-02-11 11:01:00,
2016-02-11 06:16:00,20.0,11.0,29.78,West,266,1.0,4.0,69,0.00,,,0.00,weatherlink.com 1.10,2016-02-11 11:16:00,
2016-02-11 06:31:00,19.7,11.0,29.78,WNW,301,6.0,11.0,70,0.00,,,0.00,weatherlink.com 1.10,2016-02-11 11:31:00,
2016-02-11 06:46:00,19.3,12.0,29.79,West,274,1.0,6.0,72,0.00,,,0.00,weatherlink.com 1.10,2016-02-11 11:46:00,
2016-02-11 07:01:00,19.2,11.0,29.79,NW,326,2.0,5.0,69,0.00,,,0.00,weatherlink.com 1.10,2016-02-11 12:01:00,
2016-02-11 07:16:00,19.0,9.0,29.80,WNW,295,2.0,10.0,66,0.00,,,0.00,weatherlink.com 1.10,2016-02-11 12:16:00,
2016-02-11 07:31:00,18.9,9.0,29.80,West,262,4.0,5.0,64,0.00,,,0.00,weatherlink.com 1.10,2016-02-11 12:31:00,
2016-02-11 07:46:00,19.0,7.0,29.81,NW,307,4.0,5.0,61,0.00,,,0.00,weatherlink.com 1.10,2016-02-11 12:46:00,
2016-02-11 08:01:00,19.0,7.0,29.81,SW,219,9.0,9.0,61,0.00,,,0.00,weatherlink.com 1.10,2016-02-11 13:01:00,
2016-02-11 08:16:00,19.0,7.0,29.81,SW,236,7.0,8.0,59,0.00,,,0.00,weatherlink.com 1.10,2016-02-11 13:16:00,
2016-02-11 08:31:00,19.0,7.0,29.82,SW,236,1.0,10.0,60,0.00,,,0.00,weatherlink.com 1.10,2016-02-11 13:31:00,
2016-02-11 08:46:00,19.2,6.0,29.82,WSW,240,4.0,8.0,57,0.00,,,0.00,weatherlink.com 1.10,2016-02-11 13:46:00,
2016-02-11 09:01:00,19.3,6.0,29.83,SW,232,6.0,9.0,57,0.00,,,0.00,weatherlink.com 1.10,2016-02-11 14:01:00,
2016-02-11 09:16:00,19.2,5.0,29.83,WSW,239,5.0,8.0,53,0.00,,,0.00,weatherlink.com 1.10,2016-02-11 14:16:00,
2016-02-11 09:31:00,20.1,5.0,29.83,SSW,211,4.0,9.0,51,0.00,,,0.00,weatherlink.com 1.10,2016-02-11 14:31:00,